Date,TemperatureHighF,TemperatureAvgF,TemperatureLowF,DewpointHighF,DewpointAvgF,DewpointLowF,HumidityHigh,HumidityAvg,HumidityLow,PressureMaxIn,PressureMinIn,WindSpeedMaxMPH,WindSpeedAvgMPH,GustSpeedMaxMPH,PrecipitationSumIn
2013-1-1,47,45,42,44,37,25,89,75,47,30.03,29.85,1,0,4,0.25
2013-1-2,47,43,39,44,39,34,90,83,69,30.12,29.85,2,0,5,0.37
2013-1-3,42,38,30,36,34,27,88,84,76,30.19,30.08,1,0,2,0.01
2013-1-4,47,37,28,27,23,17,88,60,33,30.25,30.13,2,0,6,0.00
2013-1-5,48,38,29,31,23,19,72,56,32,30.32,30.19,2,0,7,0.00
2013-1-6,50,42,38,36,33,31,82,71,54,30.19,29.99,1,0,4,0.00
2013-1-7,49,40,32,32,29,27,82,66,43,30.37,30.11,2,0,8,0.00
2013-1-8,52,40,29,37,32,25,88,74,50,30.41,30.31,1,0,3,0.00
2013-1-9,65,50,36,51,42,32,89,76,57,30.37,30.28,2,0,8,0.00
2013-1-10,61,54,47,48,41,31,83,63,39,30.46,30.33,3,0,6,0.00
2013-1-11,48,45,40,45,39,32,90,81,58,30.37,30.08,1,0,3,0.12
2013-1-12,69,57,48,61,52,45,91,86,71,30.10,30.02,0,0,3,0.01
2013-1-13,72,61,54,60,55,51,91,80,61,30.06,29.96,1,0,5,0.01
2013-1-14,63,60,55,59,56,51,91,87,82,30.07,30.00,2,0,5,0.48
2013-1-15,54,44,42,51,41,39,91,89,87,30.16,30.01,3,0,8,0.06
2013-1-16,48,44,40,45,42,37,91,91,90,30.02,29.90,1,0,4,0.19
2013-1-17,49,45,33,46,42,30,91,90,86,30.09,29.84,3,0,14,0.86
2013-1-18,42,35,28,31,28,24,90,78,49,30.47,30.07,2,0,7,0.63
2013-1-19,51,37,27,30,26,23,87,68,38,30.44,30.09,2,0,5,0.02
2013-1-20,60,46,36,33,29,26,78,53,31,30.09,29.92,3,0,9,0.01
2013-1-21,57,44,32,32,25,15,86,53,25,30.01,29.78,2,0,8,0.00
2013-1-22,41,32,24,15,3,-9,44,29,14,30.23,29.88,3,0,9,0.00
2013-1-23,39,28,18,17,9,1,71,48,26,30.32,30.01,2,0,7,0.00
2013-1-24,35,30,24,23,9,-2,67,43,23,30.46,29.91,3,1,14,0.00
2013-1-25,27,24,20,23,12,2,85,64,39,30.48,30.06,1,0,4,0.00
2013-1-26,35,30,26,31,26,22,88,86,80,30.36,30.04,1,0,3,0.11
2013-1-27,38,30,24,27,24,20,88,77,57,30.55,30.35,2,0,6,0.04
2013-1-28,49,41,31,44,34,26,87,76,59,30.45,30.16,1,0,5,0.09
2013-1-29,71,58,48,53,49,44,87,74,51,30.17,29.98,2,0,6,0.01
2013-1-30,70,65,58,61,58,53,89,80,70,29.98,29.30,3,1,11,0.27
2013-1-31,64,44,32,59,23,16,85,45,30,29.93,29.36,4,1,11,0.56
2013-2-1,40,33,25,27,12,-2,74,44,20,30.33,29.80,4,1,15,0.05
2013-2-2,43,32,19,30,11,5,72,44,25,30.34,29.97,2,0,6,0.00
2013-2-3,47,40,32,33,26,20,87,61,39,29.97,29.78,3,0,10,0.00
2013-2-4,47,37,26,25,20,15,79,52,30,30.09,29.92,2,0,5,0.00
2013-2-5,57,45,38,33,29,25,71,55,34,29.94,29.82,2,0,6,0.00
2013-2-6,59,46,35,33,26,19,80,52,22,30.22,29.89,4,0,8,0.00
2013-2-7,45,40,35,38,33,25,89,76,57,30.27,29.96,2,0,7,0.49
2013-2-8,54,44,37,43,36,26,89,77,52,29.97,29.75,3,1,9,0.96
2013-2-9,50,40,30,27,20,12,75,49,22,30.29,29.97,3,0,7,0.01
2013-2-10,51,38,27,35,21,16,83,52,25,30.42,30.15,2,0,6,0.04
2013-2-11,60,52,40,56,49,36,91,88,83,30.16,29.84,1,0,5,0.11
2013-2-12,59,51,44,50,33,22,86,52,25,30.01,29.84,3,0,6,0.01
2013-2-13,48,44,42,43,40,33,90,85,60,29.88,29.55,2,0,8,0.37
2013-2-14,50,41,32,33,30,26,87,67,40,30.00,29.75,2,0,7,0.01
2013-2-15,60,44,30,37,30,23,89,61,25,30.02,29.85,2,0,6,0.01
2013-2-16,44,35,30,32,30,24,89,81,61,29.90,29.77,2,0,7,0.27
2013-2-17,36,29,23,25,14,4,80,55,27,30.22,29.85,5,1,14,0.03
2013-2-18,49,34,18,23,16,11,79,51,23,30.35,30.18,2,0,7,0.01
2013-2-19,49,40,31,46,34,22,89,80,53,30.20,29.79,2,0,8,0.22
2013-2-20,50,40,31,35,17,5,89,43,16,30.08,29.89,3,0,9,0.02
2013-2-21,51,39,26,25,16,9,75,42,19,30.20,30.05,2,0,7,0.00
2013-2-22,41,35,31,32,28,18,89,78,41,30.29,30.07,2,0,6,0.26
2013-2-23,42,39,35,39,36,32,90,89,88,30.09,29.75,1,0,4,0.43
2013-2-24,60,48,39,42,34,23,90,62,25,29.96,29.73,3,0,8,0.06
2013-2-25,42,37,32,28,22,19,69,55,43,30.16,29.96,2,0,8,0.00
2013-2-26,53,42,35,50,36,22,91,80,58,30.09,29.50,5,1,12,0.66
2013-2-27,57,48,41,41,37,32,90,69,38,29.71,29.54,2,0,8,0.01
2013-2-28,48,42,34,37,29,23,85,62,38,29.78,29.62,3,0,9,0.00
2013-3-1,49,40,31,29,26,24,78,57,41,29.85,29.76,3,0,7,0.00
2013-3-2,46,39,31,27,23,17,78,54,40,29.85,29.74,2,0,8,0.00
2013-3-3,45,35,29,19,17,15,63,49,31,29.91,29.77,3,1,9,0.00
2013-3-4,49,36,25,21,14,5,66,43,17,30.04,29.91,3,0,8,0.00
2013-3-5,46,40,34,40,32,21,90,73,39,30.02,29.50,3,0,9,0.36
2013-3-6,46,40,35,39,30,25,90,69,50,29.96,29.45,6,2,15,0.23
2013-3-7,50,41,34,29,26,23,72,56,41,30.16,29.96,3,1,9,0.01
2013-3-8,54,43,33,26,22,18,67,47,26,30.22,30.09,4,1,10,0.00
2013-3-9,60,46,34,30,24,18,67,47,19,30.28,30.16,3,0,7,0.00
2013-3-10,65,49,34,33,25,15,78,46,15,30.27,30.13,3,0,7,0.00
2013-3-11,67,53,38,51,39,25,73,60,46,30.17,29.85,2,0,9,0.00
2013-3-12,67,59,49,58,50,29,90,73,48,29.87,29.68,3,0,9,0.53
2013-3-13,55,45,33,34,24,17,83,47,26,30.05,29.87,4,1,11,0.19
2013-3-14,52,40,30,20,15,8,58,38,18,30.17,30.03,4,1,10,0.06
2013-3-15,62,46,29,33,24,15,71,44,28,30.11,29.83,2,0,8,0.01
2013-3-16,75,60,44,50,40,32,73,52,30,29.83,29.57,2,0,11,0.00
2013-3-17,59,49,39,49,42,35,86,75,63,30.11,29.75,3,1,10,0.00
2013-3-18,40,38,36,37,35,33,90,89,86,30.14,29.78,3,1,8,0.24
2013-3-19,65,50,39,44,28,-1,91,55,11,29.95,29.76,3,1,11,0.23
2013-3-20,55,46,36,23,9,-1,56,24,12,30.03,29.72,3,0,8,0.00
2013-3-21,44,38,30,32,17,6,76,43,23,29.91,29.67,4,1,9,0.00
2013-3-22,49,36,24,22,12,4,61,39,16,30.02,29.90,3,0,8,0.00
2013-3-23,56,44,34,31,23,15,69,46,26,29.99,29.84,2,0,5,0.00
2013-3-24,40,37,34,35,32,27,88,82,66,29.86,29.50,4,0,8,0.64
2013-3-25,48,39,34,36,28,21,90,67,38,29.74,29.49,4,1,12,0.02
2013-3-26,49,41,31,27,24,22,79,52,40,30.03,29.73,3,0,8,0.01
2013-3-27,51,41,34,25,21,16,67,47,26,30.15,30.03,4,1,10,0.00
2013-3-28,56,43,33,26,21,15,67,44,22,30.22,30.08,3,1,9,0.00
2013-3-29,59,45,30,28,23,17,76,47,19,30.26,30.10,3,0,6,0.00
2013-3-30,65,52,39,39,29,20,70,45,21,30.17,30.00,3,0,6,0.00
2013-3-31,66,55,47,54,47,-100,90,77,60,30.02,29.72,1,0,5,0.68
2013-4-1,72,59,51,51,44,33,91,63,25,29.90,29.72,3,0,9,0.33
2013-4-2,59,48,34,33,24,13,80,44,17,30.09,29.89,3,1,9,0.01
2013-4-3,58,47,35,29,18,8,60,33,15,30.22,30.06,3,0,8,0.00
2013-4-4,48,41,38,36,27,17,88,60,34,30.30,29.87,5,1,9,0.59
2013-4-5,62,48,38,45,39,35,90,73,38,29.94,29.81,3,0,8,0.39
2013-4-6,63,52,44,37,27,13,76,41,20,30.20,29.94,3,1,9,0.01
2013-4-7,71,56,37,41,36,32,83,52,26,30.21,30.03,3,0,7,0.00
2013-4-8,78,64,50,54,48,41,87,59,33,30.09,29.96,2,0,10,0.00
2013-4-9,84,70,57,57,52,48,85,57,30,30.09,29.96,3,0,10,0.00
2013-4-10,86,72,59,60,55,52,83,57,32,30.01,29.84,2,0,7,0.00
2013-4-11,80,70,61,63,57,54,84,64,42,29.90,29.70,2,0,8,0.00
2013-4-12,80,71,65,67,59,38,90,69,36,29.71,29.50,2,0,11,0.60
2013-4-13,73,62,48,44,38,31,72,43,23,29.92,29.66,2,0,8,0.05
2013-4-14,78,63,44,47,39,27,81,47,16,30.03,29.92,2,0,6,0.00
2013-4-15,69,62,55,56,53,48,88,74,54,30.13,29.94,3,0,7,0.08
2013-4-16,74,64,58,58,56,54,88,76,51,30.23,30.11,2,0,5,0.03
2013-4-17,79,67,57,62,58,54,90,74,53,30.15,30.02,2,0,5,0.00
2013-4-18,78,69,59,61,57,53,87,68,44,30.11,29.95,3,0,7,0.00
2013-4-19,80,69,64,66,62,58,90,79,57,29.97,29.61,3,0,11,0.16
2013-4-20,64,54,44,61,38,27,90,59,27,30.19,29.71,2,0,6,0.92
2013-4-21,59,50,41,39,35,30,86,58,39,30.43,30.19,4,1,8,0.80
2013-4-22,60,49,37,42,35,31,84,62,38,30.42,30.20,2,0,9,0.00
2013-4-23,65,53,46,49,44,41,87,74,51,30.22,30.05,2,0,5,0.04
2013-4-24,75,60,46,54,50,43,89,70,46,30.07,29.88,2,0,8,0.01
2013-4-25,69,59,48,54,42,34,84,57,29,30.19,29.92,1,0,7,0.00
2013-4-26,69,56,44,47,38,28,86,55,24,30.36,30.19,1,0,5,0.00
2013-4-27,71,60,51,52,44,38,83,59,32,30.30,30.18,1,0,4,0.01
2013-4-28,57,55,53,53,49,-100,90,85,71,30.18,30.02,1,0,2,0.45
2013-4-29,69,60,53,60,56,50,91,87,70,30.02,29.89,1,0,2,0.82
2013-4-30,64,59,55,56,54,51,91,86,75,30.11,29.93,0,0,3,0.02
2013-5-1,60,57,55,56,53,52,89,87,85,30.25,30.09,3,0,6,0.01
2013-5-2,60,57,54,54,52,49,90,86,82,30.27,30.19,1,0,5,0.00
2013-5-3,65,56,49,53,46,37,88,72,42,30.21,30.10,2,0,7,0.01
2013-5-4,59,53,48,50,46,41,83,76,69,30.15,30.02,2,0,7,0.01
2013-5-5,57,53,48,52,47,43,86,81,73,30.04,29.92,3,1,7,0.01
2013-5-6,61,58,55,58,55,51,91,89,85,29.94,29.76,2,0,6,1.49
2013-5-7,67,59,53,57,52,46,91,78,47,29.86,29.78,1,0,5,0.01
2013-5-8,67,59,51,58,53,48,90,81,61,29.93,29.85,1,0,4,0.08
2013-5-9,77,64,52,59,54,49,91,73,42,29.98,29.90,0,0,3,0.07
2013-5-10,83,68,56,61,54,-100,89,68,38,29.98,29.85,1,0,6,0.00
2013-5-11,79,70,65,64,60,56,89,70,49,29.87,29.70,2,0,6,0.21
2013-5-12,70,63,53,62,47,-100,90,62,28,29.95,29.70,2,0,8,0.20
2013-5-13,65,54,44,41,35,27,81,51,27,30.11,29.94,2,0,5,0.01
2013-5-14,69,55,39,45,37,30,86,55,26,30.19,30.00,1,0,4,0.00
2013-5-15,85,66,51,60,52,43,78,62,38,30.00,29.80,1,0,5,0.00
2013-5-16,82,66,61,62,36,-100,86,64,40,29.89,29.80,2,0,5,0.00
2013-5-17,83,71,61,65,53,-100,86,66,41,29.99,29.89,1,0,3,0.00
2013-5-18,72,67,62,66,61,55,90,82,72,30.08,29.98,2,0,4,1.49
2013-5-19,74,66,62,67,63,59,91,88,71,30.07,29.98,0,0,4,1.57
2013-5-20,74,68,66,68,64,63,91,89,81,30.03,29.94,0,0,2,0.89
2013-5-21,82,72,67,71,66,64,91,83,66,29.97,29.85,0,0,0,0.01
2013-5-22,82,73,68,68,66,64,89,78,57,29.94,29.82,1,0,6,0.00
2013-5-23,78,71,66,67,65,62,91,82,65,29.87,29.72,0,0,3,0.31
2013-5-24,68,63,51,62,50,33,89,65,32,30.11,29.72,3,0,9,0.03
2013-5-25,72,57,43,48,38,27,84,55,20,30.19,30.06,2,0,5,0.00
2013-5-26,72,59,49,52,43,37,82,58,29,30.21,30.09,1,0,5,0.00
2013-5-27,77,64,50,55,50,44,87,64,33,30.21,30.08,1,0,5,0.00
2013-5-28,82,70,59,64,59,53,87,70,49,30.17,30.06,1,0,6,0.00
2013-5-29,84,72,62,63,61,58,88,68,46,30.15,30.07,1,0,8,0.00
2013-5-30,84,72,62,65,61,58,89,71,43,30.19,30.09,1,0,4,0.00
2013-5-31,84,73,64,67,63,60,88,72,46,30.14,30.01,1,0,4,0.00
2013-6-1,86,75,66,66,63,58,89,68,41,30.05,29.93,2,0,6,0.00
2013-6-2,83,75,68,68,63,-100,89,70,51,29.96,29.82,2,0,5,0.18
2013-6-3,79,71,66,69,66,63,91,86,67,29.87,29.75,2,0,8,1.24
2013-6-4,73,67,64,64,62,60,91,84,67,30.02,29.85,0,0,2,0.64
2013-6-5,77,69,62,63,60,57,88,73,52,30.07,29.94,2,0,4,0.00
2013-6-6,71,69,64,68,63,56,91,83,64,29.96,29.73,1,0,4,1.02
2013-6-7,70,68,67,67,66,64,91,91,90,29.77,29.44,1,0,7,3.24
2013-6-8,80,71,64,67,65,61,91,82,58,30.01,29.72,0,0,2,0.21
2013-6-9,84,74,65,70,66,62,91,78,56,30.08,29.96,0,0,0,0.01
2013-6-10,78,72,70,73,69,66,90,88,85,30.02,29.80,0,0,1,0.79
2013-6-11,82,74,68,67,65,62,88,75,52,29.86,29.80,0,0,0,0.03
2013-6-12,87,76,65,73,67,61,89,76,56,29.88,29.77,0,0,0,0.00
2013-6-13,91,77,67,72,68,61,89,77,42,29.78,29.50,2,0,10,0.21
2013-6-14,78,69,60,64,57,53,87,68,44,29.92,29.63,2,0,6,0.22
2013-6-15,81,70,59,63,59,55,88,71,42,30.04,29.92,0,0,4,0.01
2013-6-16,84,74,63,68,63,57,85,70,55,30.03,29.91,1,0,4,0.00
2013-6-17,81,75,69,71,67,63,83,76,67,29.94,29.83,0,0,3,0.00
2013-6-18,79,72,69,71,67,65,90,84,72,29.88,29.67,2,0,7,0.36
2013-6-19,77,70,64,66,64,61,91,81,65,30.04,29.79,1,0,5,0.34
2013-6-20,78,69,64,64,60,55,88,74,53,30.16,30.03,1,0,3,0.01
2013-6-22,78,73,70,70,67,66,89,83,70,30.13,30.04,1,0,3,0.16
2013-6-23,82,74,67,72,68,64,91,83,61,30.14,30.04,0,0,4,0.04
2013-6-24,83,76,70,73,69,66,90,81,67,30.12,29.99,1,0,4,0.03
2013-6-25,87,76,68,73,68,65,90,78,56,30.04,29.91,0,0,4,0.00
2013-6-26,87,75,68,75,68,64,90,80,58,29.95,29.80,2,0,6,0.49
2013-6-27,85,75,67,73,68,64,91,81,59,29.85,29.63,0,0,5,0.49
2013-6-28,88,76,70,72,69,66,90,80,57,29.67,29.47,1,0,5,0.34
2013-6-29,81,74,69,72,69,66,91,84,65,29.64,29.51,0,0,4,0.86
2013-6-30,83,72,67,72,68,64,91,87,68,29.78,29.63,1,0,4,1.97
2013-7-1,79,73,69,72,68,66,91,87,74,29.90,29.76,1,0,4,0.89
2013-7-2,73,72,72,70,69,68,90,89,87,30.10,29.90,0,0,0,0.30
2013-7-3,80,75,72,73,70,67,91,87,76,30.16,30.07,0,0,0,0.20
2013-7-4,84,77,72,72,70,67,91,79,62,30.20,30.08,0,0,0,0.18
2013-7-5,86,78,72,72,70,68,89,78,58,30.19,30.07,0,0,0,0.03
2013-7-6,84,77,72,72,70,68,91,80,62,30.16,30.03,0,0,0,0.03
2013-7-7,85,76,69,74,70,65,90,81,66,30.09,29.97,0,0,0,0.21
2013-7-8,84,75,69,73,69,66,91,84,63,30.09,30.00,0,0,0,1.08
2013-7-9,84,75,71,75,71,67,90,86,71,30.07,29.97,0,0,0,0.01
2013-7-10,85,76,71,74,68,-100,89,80,65,30.02,29.85,0,0,0,0.32
2013-7-11,78,73,72,72,70,68,90,88,81,29.89,29.80,0,0,0,0.97
2013-7-12,72,71,69,69,67,65,91,89,85,29.94,29.78,0,0,0,0.01
2013-7-13,75,72,69,72,68,65,90,89,87,30.10,29.93,0,0,0,0.13
2013-7-14,83,76,70,72,69,67,91,81,64,30.22,30.10,0,0,0,0.02
2013-7-15,85,75,68,73,69,65,91,81,59,30.24,30.16,0,0,0,0.02
2013-7-16,89,79,69,77,71,66,90,78,56,30.19,30.09,0,0,0,0.03
2013-7-17,87,80,74,76,73,69,90,78,56,30.14,30.01,0,0,0,0.03
2013-7-18,89,80,73,76,72,69,89,79,57,30.05,29.94,0,0,0,0.00
2013-7-19,88,80,74,75,72,70,88,77,59,30.00,29.88,0,0,0,0.00
2013-7-20,86,78,74,74,70,-100,87,79,65,29.93,29.82,0,0,0,0.00
2013-7-21,85,77,73,74,71,68,87,81,66,29.90,29.81,0,0,0,0.00
2013-7-22,85,76,72,73,70,68,89,82,65,29.86,29.73,0,0,0,0.00
2013-7-23,86,78,73,73,70,68,87,77,58,29.75,29.63,0,0,0,0.00
2013-7-24,88,78,70,72,68,65,88,74,49,29.76,29.64,0,0,0,0.02
2013-7-25,76,70,65,68,65,62,90,83,71,29.95,29.74,0,0,0,0.99
2013-7-26,80,70,62,67,62,59,90,77,56,30.03,29.94,0,0,0,0.05
2013-7-27,80,71,66,71,66,63,91,84,66,29.97,29.85,0,0,0,0.03
2013-7-28,83,74,68,71,68,65,91,82,61,29.90,29.83,0,0,0,0.04
2013-7-29,82,73,68,69,65,59,89,77,48,30.07,29.90,0,0,0,0.03
2013-7-30,82,71,62,70,62,56,87,74,53,30.14,30.05,0,0,0,0.02
2013-7-31,79,73,69,70,67,65,90,83,64,30.06,29.91,0,0,0,0.01
2013-8-1,80,74,69,72,69,64,90,86,73,29.93,29.77,0,0,0,0.46
2013-8-2,83,72,66,69,65,63,91,80,57,29.94,29.82,0,0,0,0.15
2013-8-3,85,74,69,75,70,66,91,86,66,29.93,29.82,0,0,0,0.74
2013-8-4,81,73,66,69,65,61,91,79,50,29.94,29.80,0,0,3,0.33
2013-8-5,79,70,63,67,62,59,89,77,55,30.02,29.92,0,0,3,0.01
2013-8-6,79,71,65,68,64,61,89,79,64,29.98,29.91,0,0,4,0.43
2013-8-7,81,74,66,71,67,63,90,81,58,30.01,29.94,1,0,5,0.02
2013-8-8,83,76,70,72,69,66,90,81,65,29.98,29.91,0,0,3,0.01
2013-8-9,88,78,72,75,71,69,90,80,63,29.96,29.88,0,0,0,0.01
2013-8-10,88,76,72,76,71,68,91,83,65,30.00,29.92,1,0,7,0.37
2013-8-11,87,77,71,74,71,68,91,83,57,30.02,29.92,0,0,2,0.25
2013-8-12,87,77,71,74,70,68,91,81,56,29.97,29.85,0,0,0,0.07
2013-8-13,85,74,71,74,68,-100,91,84,67,29.88,29.69,0,0,0,0.47
2013-8-14,72,68,62,69,60,-100,89,79,72,30.01,29.73,0,0,0,0.01
2013-8-15,72,60,59,60,46,-100,87,75,51,30.09,30.00,0,0,0,0.01
2013-8-16,68,62,58,60,54,-100,89,80,71,30.10,30.02,0,0,0,0.00
2013-8-17,69,65,61,66,61,57,90,88,85,30.11,30.04,0,0,0,0.32
2013-8-18,74,69,66,67,63,-100,91,85,76,30.12,30.03,0,0,0,0.38
2013-8-19,72,65,65,68,54,-100,91,88,86,30.12,30.02,0,0,0,0.35
2013-8-20,78,70,65,70,64,-100,91,85,71,30.11,30.03,0,0,0,0.01
2013-8-21,81,74,70,73,70,67,91,87,73,30.14,30.01,0,0,3,0.11
2013-8-22,85,76,69,72,68,66,91,79,55,30.06,29.90,0,0,3,0.03
2013-8-23,84,74,67,72,68,62,90,81,63,29.99,29.84,0,0,5,0.00
2013-8-24,79,70,62,63,60,55,88,73,47,30.22,29.99,1,0,6,0.00
2013-8-25,76,66,60,61,57,-100,90,75,51,30.32,30.21,2,0,5,0.00
2013-8-26,79,66,55,63,57,52,90,75,45,30.25,30.03,0,0,3,0.00
2013-8-27,84,70,61,70,62,57,88,77,53,30.04,29.88,1,0,4,0.00
2013-8-28,79,77,75,73,72,71,89,86,81,29.89,29.77,0,0,1,0.01
2013-8-29,82,76,72,72,69,67,87,79,66,29.93,29.75,1,0,5,0.01
2013-8-30,84,73,67,68,66,61,88,78,48,29.98,29.85,0,0,3,0.00
2013-8-31,85,74,66,72,67,62,90,80,60,29.88,29.77,0,0,4,0.03
2013-9-1,87,74,70,74,67,-100,91,82,61,29.81,29.69,1,0,8,1.49
2013-9-2,83,74,68,73,69,65,92,84,66,29.80,29.71,0,0,2,1.46
2013-9-3,84,76,70,72,70,67,90,82,62,29.85,29.71,0,0,3,0.00
2013-9-4,80,72,66,71,65,60,89,78,64,30.01,29.85,1,0,5,0.00
2013-9-5,83,71,64,66,62,57,90,75,43,30.02,29.95,0,0,4,0.00
2013-9-6,78,69,62,62,58,54,86,70,49,30.10,30.00,1,0,4,0.00
2013-9-7,79,68,59,66,60,55,89,77,54,30.06,29.90,0,0,4,0.00
2013-9-8,83,71,63,69,60,-100,89,74,44,29.91,29.83,0,0,5,0.00
2013-9-9,82,73,65,69,65,61,90,77,55,30.06,29.91,1,0,3,0.00
2013-9-10,86,75,67,70,67,63,90,77,53,30.15,30.05,0,0,4,0.00
2013-9-11,87,75,67,70,66,63,88,76,52,30.12,29.98,1,0,6,0.00
2013-9-12,86,75,68,71,67,63,86,77,57,29.98,29.72,0,0,4,0.00
2013-9-13,82,73,64,67,61,51,85,68,45,29.82,29.67,2,0,6,0.00
2013-9-14,72,63,57,57,50,46,85,64,43,30.07,29.81,2,0,6,0.00
2013-9-15,77,61,52,62,52,-100,89,77,48,30.16,30.04,0,0,3,0.00
2013-9-16,82,70,62,68,61,57,90,73,48,30.11,29.96,1,0,5,0.00
2013-9-17,72,64,58,57,52,47,84,67,43,30.25,30.11,1,0,5,0.00
2013-9-18,58,54,50,49,48,46,88,81,73,30.23,30.12,0,0,3,0.00
2013-9-19,72,62,54,62,55,49,86,77,56,30.12,30.01,1,0,3,0.00
2013-9-20,68,65,61,64,61,57,90,87,83,30.02,29.89,0,0,3,0.21
2013-9-21,74,68,65,68,64,61,90,87,78,29.89,29.65,0,0,4,0.55
2013-9-22,73,64,60,62,57,-100,90,79,55,29.82,29.64,1,0,6,0.59
2013-9-23,69,60,54,56,52,48,88,76,53,30.00,29.82,1,0,6,0.01
2013-9-24,72,60,53,59,54,49,89,79,55,30.03,29.87,1,0,3,0.00
2013-9-25,69,62,53,61,56,50,91,81,64,29.89,29.80,0,0,2,0.00
2013-9-26,72,64,58,59,56,52,89,77,51,29.96,29.80,1,0,7,0.00
2013-9-27,70,61,54,57,54,50,89,77,56,30.11,29.96,1,0,5,0.00
2013-9-28,67,60,53,55,52,49,89,77,59,30.19,30.09,1,0,5,0.00
2013-9-29,69,59,52,56,50,-100,90,75,52,30.10,29.96,0,0,0,0.00
2013-9-30,72,60,52,58,53,49,90,78,51,30.03,29.92,0,0,0,0.00
2013-10-1,66,62,56,61,58,52,86,85,85,30.00,29.97,0,0,0,0.00
2013-10-2,81,67,57,63,57,53,90,73,44,30.06,29.96,0,0,1,0.00
2013-10-3,82,69,59,65,60,55,90,75,43,30.05,29.97,0,0,0,0.00
2013-10-4,83,70,60,66,61,56,91,75,46,30.05,29.96,0,0,4,0.00
2013-10-5,85,71,62,67,62,58,90,75,47,30.03,29.94,0,0,1,0.00
2013-10-6,81,71,61,68,64,57,91,78,56,29.98,29.85,1,0,6,0.00
2013-10-7,72,69,62,68,66,58,90,88,83,29.91,29.76,1,0,6,1.68
2013-10-8,62,59,57,58,49,45,86,69,62,30.13,29.91,1,0,8,0.06
2013-10-9,62,57,54,54,50,47,87,77,72,30.13,30.02,2,0,9,0.09
2013-10-10,60,56,52,57,53,49,90,89,87,30.02,29.86,1,0,7,0.15
2013-10-11,65,61,57,60,57,54,90,88,82,29.90,29.84,1,0,4,0.03
2013-10-12,67,63,60,63,59,56,89,88,85,30.01,29.88,1,0,4,0.01
2013-10-13,64,61,60,61,57,-100,90,88,87,30.14,30.00,0,0,5,0.08
2013-10-14,63,60,56,59,57,52,91,89,85,30.17,30.11,0,0,6,0.09
2013-10-15,69,60,52,59,54,49,91,81,64,30.13,29.98,1,0,4,0.01
2013-10-16,68,64,60,60,59,56,88,84,75,29.99,29.88,0,0,2,0.00
2013-10-17,71,65,60,63,59,56,90,83,68,29.89,29.75,0,0,4,0.00
2013-10-18,66,61,53,62,52,44,87,73,48,29.97,29.80,1,0,5,0.01
2013-10-19,67,60,56,61,56,52,90,86,81,29.91,29.74,0,0,2,0.01
2013-10-20,61,52,44,55,42,-100,88,73,45,30.05,29.82,2,0,5,0.01
2013-10-21,64,50,40,49,43,37,91,77,45,30.10,29.94,0,0,3,0.00
2013-10-22,65,57,50,57,52,46,88,82,63,29.94,29.72,0,0,2,0.00
2013-10-23,64,57,47,55,46,32,90,69,39,29.92,29.61,2,0,9,0.06
2013-10-24,56,46,37,39,33,29,80,62,38,30.11,29.92,2,0,7,0.01
2013-10-25,53,46,39,34,30,22,78,55,31,30.29,30.11,2,0,7,0.00
2013-10-26,56,44,32,39,30,27,84,62,35,30.29,30.00,1,0,6,0.00
2013-10-27,63,51,44,45,37,-100,82,63,35,30.06,29.98,0,0,4,0.00
2013-10-28,66,53,44,52,44,-100,89,75,47,30.19,30.06,0,0,3,0.00
2013-10-29,68,58,52,55,51,48,89,79,58,30.27,30.17,0,0,2,0.00
2013-10-30,70,59,52,58,53,48,90,80,59,30.22,30.08,0,0,3,0.00
2013-10-31,70,61,55,58,54,52,90,79,61,30.12,29.85,0,0,6,0.00
2013-11-1,69,66,62,64,62,59,89,85,77,29.85,29.57,1,0,8,0.34
2013-11-2,67,60,55,59,49,37,90,70,35,29.86,29.62,1,0,5,0.02
2013-11-3,60,50,44,40,36,-100,77,60,38,30.30,29.86,2,0,8,0.01
2013-11-4,52,44,39,34,31,28,72,61,39,30.50,30.31,2,0,8,0.00
2013-11-5,55,47,37,46,38,29,78,71,61,30.49,30.37,1,0,5,0.00
2013-11-6,67,55,45,53,47,40,87,76,58,30.37,30.04,0,0,3,0.00
2013-11-7,67,58,46,58,49,31,91,74,47,30.05,29.85,1,0,6,0.01
2013-11-8,54,44,35,32,27,22,78,53,28,30.26,30.02,2,0,7,0.01
2013-11-9,56,44,31,34,28,-100,84,57,30,30.32,30.12,1,0,6,0.00
2013-11-10,68,53,41,38,33,25,77,50,24,30.17,29.99,2,0,10,0.00
2013-11-11,56,45,34,32,28,24,77,52,30,30.28,30.08,1,0,4,0.00
2013-11-12,58,42,35,40,31,15,84,68,41,30.37,29.98,1,0,8,0.01
2013-11-13,43,34,27,20,17,12,71,51,29,30.47,30.36,2,0,7,0.01
2013-11-14,56,40,26,25,20,15,80,51,20,30.41,30.27,1,0,6,0.00
2013-11-15,59,45,30,42,32,23,80,61,38,30.29,30.15,0,0,4,0.01
2013-11-16,59,53,49,54,48,-100,89,84,78,30.21,30.15,0,0,3,0.02
2013-11-17,65,59,53,60,55,50,91,86,77,30.16,29.83,0,0,3,0.01
2013-11-18,71,64,53,63,49,26,91,63,28,29.90,29.73,1,0,8,0.02
2013-11-19,53,47,40,31,27,24,66,48,32,30.25,29.89,2,0,8,0.01
2013-11-20,49,42,36,35,28,25,75,58,45,30.39,30.25,2,0,8,0.01
2013-11-21,56,47,40,43,38,33,81,72,60,30.45,30.33,1,0,5,0.00
2013-11-22,67,57,46,56,49,41,84,77,69,30.33,30.01,1,0,4,0.01
2013-11-23,61,54,43,56,38,-100,85,58,32,30.09,29.96,2,0,7,0.01
2013-11-24,42,32,25,19,6,-3,55,35,20,30.49,30.09,3,1,10,0.00
2013-11-25,41,30,19,15,9,2,70,44,20,30.54,30.33,2,0,5,0.00
2013-11-26,62,41,34,59,31,11,91,69,36,30.34,29.54,3,0,9,0.77
2013-11-27,45,39,29,43,34,16,91,82,56,30.10,29.44,3,1,9,0.62
2013-11-28,41,31,25,23,18,14,77,58,35,30.43,30.09,1,0,5,0.27
2013-11-29,47,35,26,26,22,21,82,62,37,30.59,30.42,2,0,7,0.14
2013-11-30,45,35,28,30,24,-100,81,66,52,30.59,30.32,1,0,6,0.08
2013-12-1,55,39,27,33,28,23,87,67,33,30.32,29.97,0,0,4,0.02
2013-12-2,58,43,34,40,36,30,87,75,49,29.98,29.76,1,0,3,0.01
2013-12-3,54,45,35,45,38,32,89,79,64,29.94,29.81,0,0,3,0.00
2013-12-4,61,54,48,54,50,44,90,85,76,30.01,29.92,0,0,2,0.00
2013-12-5,66,60,54,61,56,51,91,89,83,30.06,29.95,0,0,5,0.09
2013-12-6,75,68,62,62,60,59,91,78,61,29.99,29.88,2,0,14,0.03
2013-12-7,67,47,42,62,40,-100,87,78,68,30.39,29.90,3,0,7,0.18
2013-12-8,42,35,32,33,29,26,89,80,61,30.42,30.23,1,0,6,0.27
2013-12-9,43,38,33,41,35,30,91,90,89,30.23,30.01,0,0,3,0.31
2013-12-10,45,41,29,42,37,25,91,84,58,30.26,29.86,1,0,5,0.46
2013-12-11,46,35,26,29,24,20,87,67,36,30.39,30.22,1,0,5,0.02
2013-12-12,41,35,27,27,19,10,78,55,29,30.36,30.21,2,0,9,0.00
2013-12-13,49,35,24,28,20,14,81,60,25,30.33,30.21,1,0,4,0.00
2013-12-14,45,39,36,38,32,-100,89,78,54,30.24,29.72,2,0,7,0.73
2013-12-15,51,42,34,40,33,26,91,73,50,30.01,29.63,3,0,7,0.14
2013-12-16,53,39,29,34,29,24,86,69,40,30.11,30.00,1,0,4,0.01
2013-12-17,59,44,31,38,33,27,88,68,42,30.05,29.81,3,0,8,0.00
2013-12-18,46,38,30,35,22,14,82,55,27,30.23,29.97,2,0,7,0.00
2013-12-19,60,43,29,26,22,17,72,47,19,30.25,30.15,1,0,6,0.00
2013-12-20,64,52,40,50,40,27,81,65,48,30.17,30.04,1,0,7,0.00
2013-12-21,71,58,46,61,50,-100,88,78,61,30.09,29.96,1,0,8,0.00
2013-12-22,75,68,63,64,61,58,89,80,62,30.01,29.93,2,0,10,0.27
2013-12-23,64,59,46,61,55,35,91,87,67,30.08,29.91,1,0,7,1.50
2013-12-24,45,40,29,35,26,12,71,57,43,30.39,30.06,3,0,10,0.01
2013-12-25,37,28,23,17,12,8,72,51,30,30.50,30.35,2,0,5,0.00
2013-12-26,50,35,23,27,22,17,81,63,32,30.35,30.19,1,0,5,0.00
2013-12-27,50,36,28,25,21,15,77,57,26,30.41,30.30,1,0,5,0.00
2013-12-28,56,40,27,38,25,-100,81,59,26,30.35,30.10,1,0,4,0.00
2013-12-29,52,46,42,48,42,35,91,85,65,30.11,29.65,2,0,8,1.56
2013-12-30,52,44,38,40,36,32,89,75,59,30.07,29.86,1,0,5,0.04
2013-12-31,49,41,35,34,28,19,87,63,31,30.29,30.06,2,0,8,0.01
2014-1-1,48,39,32,29,25,22,77,58,35,30.36,30.09,2,0,5,0.01
2014-1-2,45,41,36,41,35,29,89,79,66,30.09,29.53,1,0,6,0.37